When you browse on this site, cookies collect data to enhance your experience and personalize the content and advertising you see.
Visit our Privacy Policy to learn more. By continuing to use the site, you agree to this use of cookies and data.
  • In Hungary
  • List of Countries
  • For 7 days
  • Water Temperature
  • Weather Map
  • News
  • Weather Widgets
  • user-avatar
    Login

    Hourly Weather Maliivtsi

    Today, 19 November, Tuesday

    Time Temperature Precipitation Wind Pressure Humidity
    00:00 +7°C° 0 mm 4 mps 738 mmHg 91%
    01:00 +8°C° 0 mm 3 mps 738 mmHg 91%
    02:00 +8°C° 0 mm 3 mps 739 mmHg 94%
    03:00 +8°C° 0 mm 3 mps 739 mmHg 94%
    04:00 +8°C° 0 mm 2 mps 739 mmHg 95%
    05:00 +9°C° 0 mm 2 mps 739 mmHg 95%
    06:00 +9°C° 0 mm 2 mps 739 mmHg 96%
    07:00 +9°C° 0 mm 2 mps 740 mmHg 96%
    08:00 +10°C° 0 mm 1 mps 740 mmHg 95%
    09:00 +10°C° 0 mm 1 mps 740 mmHg 94%
    10:00 +10°C° 0 mm 2 mps 740 mmHg 92%
    11:00 +10°C° 0 mm 2 mps 740 mmHg 90%
    12:00 +12°C° 0.1 mm 2 mps 740 mmHg 89%
    13:00 +12°C° 0.1 mm 2 mps 740 mmHg 88%
    14:00 +12°C° 0 mm 2 mps 740 mmHg 87%
    15:00 +12°C° 0 mm 2 mps 740 mmHg 89%
    16:00 +12°C° 0 mm 2 mps 740 mmHg 91%
    17:00 +10°C° 0 mm 2 mps 740 mmHg 94%
    18:00 +10°C° 0 mm 2 mps 740 mmHg 94%
    19:00 +10°C° 0 mm 2 mps 740 mmHg 94%
    20:00 +10°C° 0 mm 3 mps 740 mmHg 94%
    21:00 +10°C° 0 mm 3 mps 740 mmHg 94%
    22:00 +10°C° 0 mm 3 mps 740 mmHg 94%
    23:00 +10°C° 0 mm 3 mps 740 mmHg 94%

    Tomorrow, 20 November, Wednesday

    Time Temperature Precipitation Wind Pressure Humidity
    00:00 +10°C° 0 mm 3 mps 740 mmHg 94%
    01:00 +10°C° 0 mm 3 mps 740 mmHg 94%
    02:00 +10°C° 0 mm 3 mps 740 mmHg 94%
    03:00 +10°C° 0 mm 3 mps 740 mmHg 94%
    04:00 +10°C° 0 mm 3 mps 740 mmHg 94%
    05:00 +10°C° 0 mm 3 mps 740 mmHg 94%
    06:00 +8°C° 0 mm 4 mps 740 mmHg 93%
    07:00 +8°C° 0 mm 4 mps 740 mmHg 92%
    08:00 +8°C° 0 mm 4 mps 740 mmHg 91%
    09:00 +8°C° 0 mm 4 mps 740 mmHg 88%
    10:00 +8°C° 0 mm 5 mps 740 mmHg 86%
    11:00 +9°C° 0 mm 5 mps 740 mmHg 83%
    12:00 +9°C° 0 mm 5 mps 740 mmHg 81%
    13:00 +9°C° 0 mm 5 mps 740 mmHg 78%
    14:00 +9°C° 0 mm 6 mps 740 mmHg 75%
    15:00 +9°C° 0 mm 6 mps 740 mmHg 77%
    16:00 +8°C° 0 mm 6 mps 739 mmHg 79%
    17:00 +8°C° 0 mm 6 mps 739 mmHg 81%
    18:00 +7°C° 0 mm 6 mps 740 mmHg 81%
    19:00 +7°C° 0 mm 6 mps 740 mmHg 81%
    20:00 +5°C° 0 mm 7 mps 740 mmHg 81%
    21:00 +5°C° 0 mm 7 mps 740 mmHg 80%
    22:00 +5°C° 0 mm 7 mps 740 mmHg 79%
    23:00 +5°C° 0 mm 7 mps 740 mmHg 78%

    Day after tomorrow, 21 November, Thursday

    Time Temperature Precipitation Wind Pressure Humidity
    00:00 +4°C° 0.1 mm 8 mps 740 mmHg 79%
    01:00 +4°C° 0.1 mm 8 mps 740 mmHg 81%
    02:00 +2°C° 0.1 mm 8 mps 741 mmHg 82%
    03:00 +2°C° 0.3 mm 8 mps 741 mmHg 83%
    04:00 +2°C° 0.3 mm 8 mps 740 mmHg 84%
    05:00 +2°C° 0.3 mm 8 mps 740 mmHg 85%
    06:00 +1°C° 0.6 mm 8 mps 740 mmHg 85%
    07:00 +1°C° 0.6 mm 8 mps 741 mmHg 85%
    08:00 +1°C° 0.6 mm 8 mps 741 mmHg 86%
    09:00 +1°C° 0.5 mm 8 mps 741 mmHg 85%
    10:00 0°C° 0.5 mm 9 mps 741 mmHg 84%
    11:00 0°C° 0.5 mm 9 mps 741 mmHg 84%
    12:00 0°C° 0.2 mm 9 mps 741 mmHg 84%
    13:00 0°C° 0.2 mm 8 mps 741 mmHg 83%
    14:00 0°C° 0.2 mm 8 mps 741 mmHg 83%
    15:00 0°C° 0 mm 8 mps 741 mmHg 81%
    16:00 0°C° 0 mm 8 mps 741 mmHg 79%
    17:00 0°C° 0 mm 8 mps 741 mmHg 77%
    18:00 0°C° 0 mm 8 mps 742 mmHg 75%
    19:00 0°C° 0 mm 8 mps 742 mmHg 73%
    20:00 -1°C° 0 mm 8 mps 743 mmHg 72%
    21:00 -1°C° 0 mm 8 mps 743 mmHg 71%
    22:00 -2°C° 0 mm 8 mps 743 mmHg 70%
    23:00 -2°C° 0 mm 8 mps 743 mmHg 69%

    22 November, Friday

    Time Temperature Precipitation Wind Pressure Humidity
    00:00 -2°C° 0 mm 8 mps 743 mmHg 67%
    01:00 -4°C° 0 mm 8 mps 743 mmHg 66%
    02:00 -4°C° 0 mm 8 mps 743 mmHg 65%
    03:00 -5°C° 0 mm 8 mps 743 mmHg 64%
    04:00 -4°C° 0 mm 7 mps 743 mmHg 62%
    05:00 -6°C° 0 mm 7 mps 743 mmHg 61%
    06:00 -6°C° 0 mm 7 mps 743 mmHg 62%
    07:00 -6°C° 0 mm 7 mps 743 mmHg 63%
    08:00 -7°C° 0 mm 7 mps 743 mmHg 64%
    09:00 -6°C° 0 mm 7 mps 743 mmHg 62%
    10:00 -6°C° 0 mm 7 mps 743 mmHg 61%
    11:00 -6°C° 0 mm 7 mps 743 mmHg 59%
    12:00 -4°C° 0 mm 7 mps 743 mmHg 57%
    13:00 -4°C° 0 mm 7 mps 742 mmHg 55%
    14:00 -3°C° 0 mm 7 mps 742 mmHg 53%
    15:00 -4°C° 0 mm 7 mps 742 mmHg 55%
    16:00 -4°C° 0 mm 7 mps 742 mmHg 56%
    17:00 -5°C° 0 mm 6 mps 742 mmHg 57%
    18:00 -5°C° 0 mm 6 mps 742 mmHg 58%
    19:00 -7°C° 0 mm 7 mps 742 mmHg 58%
    20:00 -7°C° 0 mm 7 mps 742 mmHg 59%
    21:00 -6°C° 0 mm 6 mps 742 mmHg 61%
    22:00 -6°C° 0 mm 6 mps 742 mmHg 64%
    23:00 -6°C° 0 mm 6 mps 742 mmHg 66%

    23 November, Saturday

    Time Temperature Precipitation Wind Pressure Humidity
    00:00 -6°C° 0 mm 6 mps 741 mmHg 68%
    01:00 -6°C° 0 mm 6 mps 741 mmHg 69%
    02:00 -6°C° 0 mm 6 mps 741 mmHg 70%
    03:00 -5°C° 0 mm 6 mps 741 mmHg 70%
    04:00 -5°C° 0 mm 6 mps 741 mmHg 70%
    05:00 -5°C° 0 mm 6 mps 740 mmHg 70%
    06:00 -5°C° 0 mm 6 mps 740 mmHg 71%
    07:00 -5°C° 0 mm 6 mps 740 mmHg 71%
    08:00 -5°C° 0 mm 6 mps 740 mmHg 72%
    09:00 -4°C° 0 mm 6 mps 740 mmHg 70%
    10:00 -4°C° 0 mm 6 mps 740 mmHg 68%
    11:00 -3°C° 0 mm 6 mps 740 mmHg 67%
    12:00 -3°C° 0 mm 6 mps 740 mmHg 67%
    13:00 -2°C° 0 mm 6 mps 739 mmHg 68%
    14:00 -2°C° 0 mm 6 mps 739 mmHg 68%
    15:00 -2°C° 0 mm 6 mps 739 mmHg 69%
    16:00 -2°C° 0 mm 6 mps 739 mmHg 70%
    17:00 -2°C° 0 mm 6 mps 739 mmHg 71%
    18:00 -2°C° 0 mm 6 mps 739 mmHg 71%
    19:00 -2°C° 0 mm 6 mps 739 mmHg 71%
    20:00 -2°C° 0 mm 6 mps 739 mmHg 71%
    21:00 -2°C° 0 mm 6 mps 738 mmHg 72%
    22:00 -3°C° 0 mm 6 mps 738 mmHg 73%
    23:00 -3°C° 0 mm 6 mps 738 mmHg 75%

    24 November, Sunday

    Time Temperature Precipitation Wind Pressure Humidity
    00:00 -3°C° 0 mm 6 mps 738 mmHg 76%
    01:00 -3°C° 0 mm 6 mps 738 mmHg 76%
    02:00 -3°C° 0 mm 6 mps 738 mmHg 77%
    03:00 -3°C° 0 mm 6 mps 738 mmHg 78%
    04:00 -2°C° 0 mm 5 mps 738 mmHg 78%
    05:00 -1°C° 0 mm 5 mps 737 mmHg 79%
    06:00 -1°C° 0 mm 5 mps 737 mmHg 79%
    07:00 -1°C° 0 mm 5 mps 737 mmHg 79%
    08:00 -1°C° 0 mm 5 mps 737 mmHg 78%
    09:00 -1°C° 0 mm 5 mps 737 mmHg 77%
    10:00 0°C° 0 mm 5 mps 738 mmHg 75%
    11:00 0°C° 0 mm 5 mps 738 mmHg 73%
    12:00 +1°C° 0 mm 5 mps 737 mmHg 72%
    13:00 +1°C° 0 mm 5 mps 737 mmHg 71%
    14:00 +2°C° 0 mm 5 mps 736 mmHg 70%
    15:00 +1°C° 0 mm 5 mps 736 mmHg 72%
    16:00 +1°C° 0 mm 4 mps 736 mmHg 73%
    17:00 0°C° 0 mm 4 mps 736 mmHg 75%
    18:00 +1°C° 0 mm 4 mps 736 mmHg 74%
    19:00 +1°C° 0 mm 5 mps 736 mmHg 73%
    20:00 +1°C° 0 mm 5 mps 736 mmHg 73%
    21:00 +1°C° 0 mm 5 mps 736 mmHg 74%
    22:00 +1°C° 0 mm 5 mps 736 mmHg 75%
    23:00 +1°C° 0 mm 5 mps 736 mmHg 76%
    Show more